EGOV

RAF Valley/Anglesey Airport

Airport
ICAO code
EGOV
IATA Code
VLY
Summary
ICAO Region
EUR
ICAO Territory
Location

Valley, Anglesey, Wales

Serving
Holyhead
Elevation
37 ft
Coordinates
53° 14' 55" N , 4° 32' 12" W
KCC
Metar
EGOV 222320Z AUTO 24017KT 9999 // SCT021/// 06/02 Q0980

RAF Valley is a Royal Air Force station on the island of Anglesey in North Wales, which is also known as Anglesey Airport for permitted civil traffic. It is the military base for a number of aviation activities but is particularly focussed on fast-jet training using the BAE Hawk. Anglesey Airport provides limited scheduled passenger flights with financial support from the Welsh Government.

Climatology

Temperate Marine climate/Oceanic climate (Köppen climate classification Cfb).

Runways

Designator Length Width Surface Rops
8/26 1280 46 ASP No/No
1/19 1639 46 ASP No/No
14/32 2290 46 ASP No/No

Airport map

Aerial View

SKYbrary Partners:

Safety knowledge contributed by: